Probability
0 0 0 0 0 0 0 0 0 0 0 0 0 0 0 0 0 0 0 0 0 0 0 0 0 0 0 0 0 0 0 0 0 0 0 0 0 0
0 0 0 0 0 0 0 0 0 0 0 0 0 0 0 0 0 0 0 0 0 0 0 0 0 0 0 0 0 0 0 0 0 0 0 0 0 0
0 0 0 0 0 0 0 0 0 0 0 0 0 0 0 0 0 0 0 0 0 0 0 0 0 0 0 0 0 0 0 0 0 0 0 0 0 0
0 0 0 0 0 0 0 0 0 0 0 0 0 0 0 0 0 0 0 0 0 0 0 0 0 0 0 0 0 0 0 0 0 0 0 0 0 0
0 0 0 0 0 0 0 0 0 0 0 0 0 0 0 0 0 0 0 0 0 0 0 0 0 0 0 0 0 0 0 0 0 0 0 0 0 0
0 0 0 0 0 0 0 0 0 0 0 0 0 0 0 0 0 0 0 0 0 0 0 0 0 0 0 0 0 0 0 0 0 0 0 0 0 0
0 0 0 0 0 0 0 0 0 0 0 0 0 0 0 0 0 0 0 0 0 0 0 0 0 0 0 0 0 0 0 0 0 0 0 0 0 0
0 0 0 0 0 0 0 0 0 0 0 0 0 0 0 0 0 0 0 0 0 0 0 0 0 0 0 0 0 0 0 0 0 0 0 0 0 0
0 0 0 0 0 0 0 0 0 0 0 0 0 0 0 0 0 0 0 0 0 0 0 0 0 0 0 0 0 0 0 0 0 0 0 0 0 0
0 0 0 0 0 0 0 0 0 0 0 0 0 0 0 0 0 0 0 0 0 0 0 0 0 0 0 0 0 0 0 0 0 0 0 0 0 0
0 0 0 0 0 0 0 0 0 0 0 0 0 0 0 0 0 0 0 0 0 0 0 0 0 0 0 0 0 0 0 0 0 0 0 0 0 0
0 0 0 0 0 0 0 0 0 0 0 0 0 0 0 0 0 0 0 0 0 0 0 0 0 0 0 0 0 0 0 0 0 0 0 0 0 0
0 0 0 0 0 0 0 0 0 0 0 0 0 0 0 0 0 0 0 0 0 0 0 0 0 0 0 0 0 0 0 0 0 0 0 0 0 0
0 0 0 0 0 0 0 0 0 0 0 0 0 0 0 0 0 0 0 0 0 0 0 0 0 0 0 0 0 0 0 0 0 0 0 0 0 0
0 0 0 0 0 0 0 0 0 0 0 0 0 0 0 0 0 0 0 0 0 0 0 0 0 0 0 0 0 0 0 0 0 0 0 0 0 0
0 0 0 0 0 0 0 0 0 0 0 0 0 0 0 0 0 0 0 0 0 0 0 0 0 0 0 0 0 0 0 0 0 0 0 0 0 0
0 0 0 0 0 0 0 0 0 0 0 0 0 0 0 0 0 0 0 0 0 0 0 0 0 0 0 0 0 0 0 0 0 0 0 0 0 0
0 0 0 0 0 0 0 0 0 0 0 0 0 0 0 0 0 0 0 0 0 0 0 0 0 0 0 0 0 0 0 0 0 0 0 0 0 0
0 0 0 0 0 0 0 0 0 0 0 0 0 0 0 0 0 0 0 0 0 0 0 0 0 0 0 0 0 0 0 0 0 0 0 0 0 0
0 0 0 0 0 0 0 0 0 0 0 0 0 0 0 0 0 0 0 0 0 0 0 0 0 0 0 0 0 0 0 0 0 0 0 0 0 0
0 0 0 0 0 0 0 0 0 0 0 0 0 0 0 0 0 0 0 0 0 0 0 0 0 0 0 0 0 0 0 0 0 0 0 0 0 0
0 0 0 0 0 0 0 0 0 0 0 0 0 0 0 0 0 0 0 0 0 0 0 0 0 0 0 0 0 0 0 0 0 0 0 0 0 0
0 0 0 0 0 0 0 0 0 0 0 0 0 0 0 0 0 0 0 0 0 0 0 0 0 0 0 0 0 0 0 0 0 0 0 0 0 0
Wind_Speed
4 4 3 4 5 5 6 7 10 17 16 7 5 5 5 6 14 11 10 21 30 32 33 34 34 33 33 33 32 32 32 32 33 34 34 34 34 34
3 4 5 5 5 5 6 6 7 12 17 10 9 7 8 11 18 12 11 27 29 31 33 34 33 33 33 33 33 33 34 34 34 35 35 34 34 34
5 6 6 7 6 6 7 7 8 9 15 17 12 9 9 10 11 8 10 10 13 27 32 33 33 33 33 34 34 35 35 35 35 35 35 34 34 34
7 6 7 8 8 8 7 8 9 10 13 19 16 13 12 11 11 10 12 12 10 24 30 32 33 34 35 35 35 35 35 35 34 34 34 34 34 34
7 7 8 8 10 9 10 11 10 11 10 14 17 14 12 10 11 13 12 10 13 18 25 28 30 33 34 34 35 35 34 34 34 33 33 33 33 33
7 7 8 9 11 11 11 10 11 12 12 13 14 13 12 10 10 12 14 8 11 13 18 22 26 30 32 33 34 34 34 33 33 33 33 33 33 33
7 7 9 15 20 17 15 13 14 13 13 14 14 14 13 11 12 12 16 14 11 10 11 11 12 12 15 23 28 31 33 33 33 33 32 32 31 31
8 8 10 13 18 24 27 27 25 19 17 15 14 15 16 14 13 14 16 16 15 7 9 13 11 13 12 11 24 32 33 34 34 33 33 33 32 31
8 9 11 13 19 12 20 25 22 26 26 18 16 16 17 17 17 18 16 17 17 13 13 16 11 14 13 16 30 33 34 35 34 34 33 33 32 32
9 10 11 11 14 20 17 16 14 13 17 14 13 14 15 15 15 17 17 17 15 12 11 16 14 14 15 13 26 33 34 34 34 33 32 32 31 30
9 9 12 12 23 29 20 17 14 12 19 24 25 24 29 29 23 14 13 13 15 14 9 11 14 14 14 15 18 29 31 31 31 31 31 30 29 28
8 8 16 21 27 28 17 12 14 16 15 14 16 19 17 17 22 14 12 13 14 13 8 7 12 12 12 9 9 10 15 24 30 31 31 30 29 18
10 9 10 25 27 27 23 12 19 20 13 13 13 12 12 10 11 12 12 12 13 14 12 11 12 12 12 13 11 10 12 13 14 18 23 28 28 22
11 10 13 25 26 26 19 21 26 21 11 12 12 12 11 12 12 13 15 14 14 17 17 16 13 13 14 15 14 11 10 12 13 13 12 17 21 26
10 20 23 24 22 16 20 25 20 11 11 11 12 12 10 11 12 12 13 13 14 14 13 14 14 12 11 13 12 13 14 12 10 10 9 8 8 10
10 13 19 20 17 18 17 14 10 10 12 11 12 12 11 10 11 11 12 12 12 12 10 10 12 13 11 11 12 14 14 11 10 9 5 2 3 6
13 6 7 9 10 10 10 10 10 11 11 11 11 12 12 12 12 10 10 11 11 12 12 9 9 10 10 9 9 11 12 10 8 8 6 5 4 2
14 9 10 10 11 12 12 12 12 11 11 12 12 11 12 12 13 11 10 10 11 11 11 10 11 9 6 5 7 11 10 9 9 10 8 9 9 8
10 9 10 10 11 11 11 11 12 12 11 11 11 12 12 12 12 11 11 10 10 10 10 9 9 7 7 9 11 14 11 9 10 11 11 10 11 11
8 9 10 10 11 11 11 11 12 12 11 11 11 11 11 11 11 11 10 11 10 10 9 8 8 8 6 7 7 9 17 12 9 10 10 10 11 15
9 10 10 10 10 11 11 11 11 12 12 12 11 12 11 11 11 10 10 14 11 8 9 8 8 13 7 5 5 7 10 18 18 11 8 9 11 13
10 11 11 11 11 11 11 11 11 12 12 11 11 11 10 10 11 11 9 9 8 7 6 6 8 7 6 7 7 7 9 10 17 26 27 21 11 10
10 11 11 11 11 10 10 11 13 12 12 11 11 11 11 11 10 9 8 7 7 6 5 6 6 6 6 6 6 7 10 11 10 12 16 25 28 27
Wind_Direction
296 297 296 291 293 289 291 295 301 306 305 293 284 257 260 266 283 288 278 291 296 296 296 294 291 288 286 285 285 286 286 286 285 282 279 276 273 271
288 295 294 294 295 292 289 289 285 290 296 301 297 284 278 289 292 289 279 292 296 297 295 293 291 289 288 287 286 286 286 285 283 280 278 276 273 271
291 298 293 299 300 300 294 289 286 285 291 298 298 296 283 279 285 269 274 274 282 293 295 294 293 292 291 289 288 287 286 284 282 280 278 276 275 272
286 289 294 308 305 301 296 291 289 282 285 295 301 301 294 289 290 285 293 293 287 292 293 292 292 292 291 290 288 286 284 282 280 278 276 275 273 272
281 283 290 300 302 300 296 292 289 291 288 292 296 297 295 295 298 295 291 285 287 290 292 292 291 290 289 288 287 286 285 283 280 277 275 272 271 269
276 276 283 291 295 297 297 292 298 299 295 292 293 296 298 296 295 301 300 287 286 289 287 287 288 290 289 288 287 286 284 282 278 275 272 269 266 264
284 279 286 303 308 308 307 308 305 300 300 300 299 301 302 304 303 301 299 299 286 281 283 282 283 279 280 282 283 281 279 277 275 273 272 270 267 264
303 299 297 304 305 313 312 308 306 306 305 302 302 302 304 303 301 300 301 301 299 288 282 288 283 281 278 272 276 279 279 278 276 275 274 272 270 267
307 304 308 310 313 299 299 305 306 304 305 304 302 301 301 303 303 302 299 298 297 300 296 291 285 282 280 279 283 282 281 280 277 274 271 268 266 264
297 295 297 300 305 309 307 308 304 304 303 302 294 296 300 301 299 300 299 297 292 288 285 288 290 285 285 280 281 280 279 278 276 273 269 265 261 258
293 295 305 305 307 314 317 314 314 308 310 309 310 309 309 309 308 306 303 301 299 296 288 282 287 289 284 279 276 278 278 278 277 275 272 267 261 256
302 294 310 315 315 321 323 321 317 312 315 318 314 309 305 301 307 305 300 296 296 296 287 279 289 297 293 268 261 270 275 276 276 274 270 265 259 253
318 316 311 319 324 328 330 321 312 320 325 316 309 306 306 305 305 302 296 292 291 288 291 294 292 292 288 295 290 276 271 272 272 268 266 260 253 243
316 313 315 324 330 330 328 320 325 330 320 312 310 312 312 310 307 303 298 292 284 284 288 289 289 293 296 296 299 294 287 279 273 267 256 249 244 234
314 320 326 330 331 328 321 326 330 323 314 314 314 312 307 301 303 303 301 295 290 284 282 284 288 293 291 291 292 293 303 300 287 275 259 233 216 207
318 322 329 328 327 324 324 325 321 315 319 315 312 308 306 305 307 307 308 310 307 304 294 285 289 295 294 286 283 291 299 297 302 304 292 255 189 185
332 325 322 325 325 323 322 321 321 322 321 315 312 311 311 311 310 310 306 308 308 311 317 317 311 300 282 273 291 302 310 315 327 343 359 27 43 89
339 329 325 324 322 322 322 321 321 319 317 315 312 310 311 311 311 311 311 312 314 315 318 321 327 328 323 293 290 318 332 343 355 8 19 33 35 31
336 324 321 320 318 317 316 316 315 314 312 310 309 309 309 309 309 312 315 317 318 320 322 324 330 335 338 338 330 342 353 358 9 22 27 32 37 36
327 321 318 316 315 314 313 312 311 312 311 310 308 307 307 308 310 311 314 317 321 324 326 331 337 340 333 320 316 331 4 17 16 23 26 31 41 44
324 319 315 313 312 311 310 309 308 307 306 307 306 306 307 308 308 310 312 319 325 325 328 331 326 334 329 329 354 7 14 28 42 36 16 29 44 49
320 316 313 309 309 308 307 307 307 306 306 305 304 304 305 305 305 307 311 317 319 321 317 317 327 340 356 14 20 20 28 35 43 48 49 50 50 54
317 313 310 308 306 305 305 305 304 302 302 301 301 302 304 304 303 304 309 313 316 321 325 332 343 352 2 9 21 31 37 41 48 54 55 56 63 67